[[{"header":{"parameterUnit":"m.s-1","parameterCategory":1,"la1":30.2991,"la2":30.254,"lo1":-89.0895,"lo2":-89.0444,"dy":0.0017,"dx":0.0017,"nx":28,"ny":28,"refTime":"2025-09-07T21:00:00:Z","depth":0,"parameterNumber":2,"parameterNumberName":"U-component_of_WINDS"},"data":[0,0,0,0,0,0,0,0,0,0,0,0,0,0,0,0,0,0,0,0,0,0,0,0,0,0,0,0,0,0,0,0,0,0,0,0,0,0,0,0,0,0,0,0,0,0,0,0,0,0,0,0,0,0,0,0,0,0,-1.784,-1.7841,0,-1.7873,-1.7873,-1.7874,-1.7836,-1.7835,-1.7833,-1.7832,-1.7866,-1.7868,-1.7871,0,0,0,0,0,0,0,0,0,0,0,0,0,-1.7746,-1.7748,-1.784,-1.7841,-1.7841,-1.7873,-1.7873,-1.7874,-1.7836,-1.7835,-1.7833,-1.7831,-1.7866,-1.7868,-1.7871,0,0,0,0,0,0,0,0,0,0,0,0,0,-1.7784,-1.7749,-1.784,-1.7826,-1.7825,-1.7873,-1.7873,-1.7874,-1.7837,-1.7835,-1.7833,-1.7831,-1.7865,-1.7868,-1.7871,-1.7934,0,0,-1.7881,-1.7883,0,0,0,0,0,0,0,0,-1.7782,-1.7787,-1.7828,-1.7827,-1.7826,-1.7848,-1.7853,-1.7894,-1.7837,-1.7832,-1.7832,-1.783,-1.7862,-1.7865,-1.7876,-1.7936,-1.7937,-1.7882,-1.7884,-1.7885,-1.7886,0,0,0,0,0,0,0,-1.7779,-1.7786,-1.7853,-1.7828,-1.7828,-1.7818,-1.7821,-1.786,-1.7859,-1.7833,-1.783,-1.7834,-1.7861,-1.7873,-1.7877,-1.7938,-1.7882,-1.7885,-1.7887,-1.7888,-1.8051,-1.8053,0,0,0,0,0,0,-1.7778,-1.7784,-1.7852,-1.7854,-1.7798,-1.7822,-1.7825,-1.7843,-1.7858,-1.7858,-1.7836,-1.7833,-1.7868,-1.7873,-1.7878,-1.7953,-1.7885,-1.7888,-1.789,-1.8048,-1.8051,-1.8054,0,0,0,0,0,0,-1.7776,-1.7784,-1.7851,-1.7818,-1.7826,-1.7826,-1.7846,-1.7845,-1.7857,-1.7861,-1.786,-1.7849,-1.7867,-1.7873,-1.792,-1.7954,-1.789,-1.7893,-1.8046,-1.8049,-1.8052,-1.8104,0,0,0,0,0,0,-1.7774,-1.7784,-1.7808,-1.7819,-1.7828,-1.7893,-1.7848,-1.7847,-1.7863,-1.7858,-1.7872,-1.7873,-1.7866,-1.7916,-1.7924,-1.7957,-1.7895,-1.8043,-1.8047,-1.8051,-1.8099,-1.8109,-1.8117,0,0,0,0,0,-1.777,-1.7821,-1.7809,-1.7818,-1.7858,-1.7895,-1.79,-1.7891,-1.7866,-1.789,-1.7892,-1.7872,-1.7948,-1.7921,-1.793,-1.7965,-1.8041,-1.8046,-1.8051,-1.8096,-1.8107,-1.8117,0,0,0,0,0,0,-1.7815,-1.7822,-1.7809,-1.7865,-1.788,-1.7889,-1.7919,-1.7903,-1.7925,-1.792,-1.7908,-1.7911,-1.7962,-1.7968,-1.7937,-1.8026,-1.799,-1.7998,-1.8021,-1.8032,-1.8041,-1.8039,-1.7898,0,0,0,0,0,-1.7831,-1.786,-1.7865,-1.7914,-1.7922,-1.7919,-1.7935,-1.7927,-1.7941,-1.7947,-1.7953,-1.7968,-1.7995,-1.8014,-1.8039,-1.8099,-1.8102,-1.8128,-1.8136,-1.8144,-1.8151,-1.8184,-1.8195,-1.8071,-1.8071,-1.8071,0,0,-1.7865,-1.7872,-1.7892,-1.7923,-1.7933,-1.7965,-1.7925,-1.7959,-1.7982,-1.7952,-1.7998,-1.8002,-1.8018,-1.8073,-1.8097,-1.8079,-1.8185,-1.815,-1.8156,-1.8159,-1.819,-1.8202,-1.8213,-1.8074,-1.8074,-1.8073,0,0,-1.7943,-1.7951,-1.7993,-1.8004,-1.802,-1.8017,-1.8027,-1.8039,-1.8041,-1.8086,-1.8064,-1.8091,-1.8138,-1.8151,-1.8163,-1.8245,-1.8228,-1.8253,-1.83,-1.8332,-1.8342,-1.8351,-1.8381,-1.8392,-1.826,-1.826,-1.826,0,-1.7983,-1.8029,-1.8017,-1.8053,-1.8068,-1.8041,-1.8084,-1.8095,-1.8119,-1.8129,-1.8109,-1.8167,-1.8176,-1.8233,-1.8253,-1.8264,-1.8276,-1.8253,-1.8342,-1.835,-1.8358,-1.8387,-1.8398,-1.8263,-1.8263,-1.8263,-1.8262,0,-1.8079,-1.8111,-1.8143,-1.8166,-1.8184,-1.8223,-1.8217,-1.8237,-1.8226,-1.8226,-1.8272,-1.8282,-1.8309,-1.8321,-1.8311,-1.8377,-1.8366,-1.8343,-1.8307,-1.8373,-1.84,-1.8411,-1.8268,-1.8267,-1.8266,-1.8265,0,0,-1.8188,-1.8202,-1.8215,-1.8225,-1.824,-1.8265,-1.8302,-1.8328,-1.8346,-1.8362,-1.8394,-1.8434,-1.8414,-1.8428,-1.8419,-1.8447,-1.8513,-1.8422,-1.8422,-1.844,-1.8587,-1.8605,-1.8618,-1.8501,-1.8503,-1.8504,-1.8586,0,-1.8267,-1.8333,-1.8323,-1.8386,-1.8416,-1.8391,-1.8424,-1.8437,-1.8437,-1.8463,-1.8463,-1.8492,-1.8462,-1.8471,-1.8497,-1.85,-1.8543,-1.8493,-1.8532,-1.8533,-1.853,-1.8632,-1.8651,-1.8728,-1.8597,-1.8598,-1.86,0,-1.8369,-1.8389,-1.8456,-1.8466,-1.8478,-1.8508,-1.8532,-1.8556,-1.857,-1.8568,-1.8584,-1.8569,-1.8607,-1.8569,-1.8622,-1.8588,-1.8603,-1.8606,-1.8609,-1.8614,-1.8572,-1.8641,-1.8752,-1.8764,-1.8616,-1.8615,-1.8613,0,-1.8444,-1.8487,-1.8533,-1.8542,-1.8555,-1.8577,-1.8583,-1.8595,-1.8611,-1.8631,-1.8641,-1.8665,-1.8679,-1.8698,-1.8691,-1.8664,-1.8745,-1.8706,-1.8746,-1.8747,-1.8766,-1.8765,-1.8883,-1.8773,-1.8773,-1.8772,-1.8772,0,-1.8535,-1.8577,-1.8567,-1.8595,-1.8642,-1.8629,-1.8675,-1.8679,-1.8689,-1.8718,-1.8697,-1.8724,-1.8712,-1.8739,-1.8733,-1.8778,-1.8784,-1.8784,-1.8783,-1.8787,-1.8787,-1.8798,-1.8793,-1.8775,-1.8775,-1.8774,-1.8774,0,-1.8627,-1.8621,-1.867,-1.8678,-1.868,-1.8715,-1.8721,-1.8748,-1.8746,-1.8783,-1.8791,-1.8788,-1.8818,-1.8812,-1.8846,-1.8842,-1.8899,-1.8889,-1.8894,-1.8893,-1.8933,-1.893,-1.9063,-1.9081,-1.8958,-1.8959,-1.896,0,-1.8686,-1.8718,-1.8729,-1.8747,-1.8755,-1.8783,-1.88,-1.8788,-1.8806,-1.8824,-1.8848,-1.8876,-1.8899,-1.8948,-1.8949,-1.8975,-1.8967,-1.9012,-1.8971,-1.8975,-1.897,-1.8969,-1.8972,-1.9021,-1.9022,-1.9023,-1.9024,0,-1.8793,-1.8789,-1.8813,-1.8837,-1.8857,-1.8875,-1.8891,-1.8906,-1.8896,-1.8917,-1.8947,-1.8964,-1.8998,-1.9027,-1.905,-1.9056,-1.9039,-1.9037,-1.9047,-1.9054,-1.9056,-1.9057,-1.8918,-1.9034,-1.9033,-1.9032,-1.9032,-1.9032,-1.8872,-1.8899,-1.8911,-1.8939,-1.895,-1.8965,-1.8991,-1.8992,-1.9017,-1.9043,-1.9034,-1.9069,-1.9082,-1.9111,-1.912,-1.9148,-1.9131,-1.9147,-1.9151,-1.9155,-1.9161,-1.905,-1.9152,-1.9151,-1.9151,-1.9151,-1.9151,0,-1.8979,-1.8985,-1.9011,-1.9034,-1.9055,-1.9036,-1.9052,-1.9072,-1.9103,-1.9116,-1.9138,-1.9173,-1.92,-1.9203,-1.9229,-1.9251,-1.9243,-1.9258,-1.9257,-1.9259,-1.9174,-1.9162,-1.9264,-1.9264,-1.9263,-1.9263,-1.9263,-1.9263,-1.9037,-1.9083,-1.908,-1.913,-1.9136,-1.917,-1.9181,-1.9195,-1.9206,-1.9246,-1.9268,-1.927,-1.9279,-1.9305,-1.9329,-1.9329,-1.9341,-1.9359,-1.9356,-1.9276,-1.9265,-1.9255,-1.9244,-1.9361,-1.9361,-1.944,-1.9441,-1.9441]},{"header":{"parameterUnit":"m.s-1","parameterCategory":1,"la1":30.2991,"la2":30.254,"lo1":-89.0895,"lo2":-89.0444,"dy":0.0017,"dx":0.0017,"nx":28,"ny":28,"refTime":"2025-09-07T21:00:00:Z","depth":0,"parameterNumber":3,"parameterNumberName":"V-component_of_WINDS"},"data":[0,0,0,0,0,0,0,0,0,0,0,0,0,0,0,0,0,0,0,0,0,0,0,0,0,0,0,0,0,0,0,0,0,0,0,0,0,0,0,0,0,0,0,0,0,0,0,0,0,0,0,0,0,0,0,0,0,0,-5.7682,-5.7683,0,-5.7733,-5.7734,-5.7734,-5.7695,-5.7694,-5.7692,-5.769,-5.7737,-5.7739,-5.7742,0,0,0,0,0,0,0,0,0,0,0,0,0,-5.7547,-5.755,-5.7682,-5.7683,-5.7684,-5.7733,-5.7734,-5.7734,-5.7696,-5.7694,-5.7692,-5.769,-5.7736,-5.7739,-5.7742,0,0,0,0,0,0,0,0,0,0,0,0,0,-5.7603,-5.7551,-5.7682,-5.767,-5.767,-5.7733,-5.7734,-5.7734,-5.7696,-5.7693,-5.7691,-5.7689,-5.7735,-5.7739,-5.7743,-5.7818,0,0,-5.7755,-5.7757,0,0,0,0,0,0,0,0,-5.7599,-5.7607,-5.7672,-5.7671,-5.7671,-5.7705,-5.7703,-5.7762,-5.7697,-5.7686,-5.769,-5.7687,-5.7728,-5.7732,-5.7747,-5.7821,-5.7823,-5.7756,-5.7758,-5.776,-5.7761,0,0,0,0,0,0,0,-5.7596,-5.7605,-5.7702,-5.7672,-5.7672,-5.7661,-5.7666,-5.7714,-5.772,-5.7687,-5.7684,-5.7691,-5.7727,-5.7743,-5.7748,-5.7823,-5.7756,-5.7759,-5.7762,-5.7764,-5.7962,-5.7965,0,0,0,0,0,0,-5.7594,-5.7602,-5.7701,-5.7704,-5.7629,-5.7665,-5.7671,-5.7697,-5.7719,-5.7721,-5.7693,-5.7689,-5.7737,-5.7743,-5.7749,-5.7841,-5.776,-5.7764,-5.7766,-5.7959,-5.7963,-5.7966,0,0,0,0,0,0,-5.7591,-5.7603,-5.7699,-5.7652,-5.7664,-5.767,-5.7699,-5.7699,-5.7715,-5.7724,-5.7725,-5.7709,-5.7736,-5.7744,-5.7802,-5.7842,-5.7766,-5.777,-5.7956,-5.796,-5.7964,-5.8023,0,0,0,0,0,0,-5.7587,-5.7602,-5.7632,-5.7653,-5.7666,-5.7752,-5.7702,-5.7702,-5.7723,-5.7718,-5.7739,-5.774,-5.7734,-5.7796,-5.7806,-5.7846,-5.7773,-5.7952,-5.7958,-5.7963,-5.8017,-5.8028,-5.8038,0,0,0,0,0,-5.7583,-5.7645,-5.7634,-5.7646,-5.7704,-5.7754,-5.7762,-5.7755,-5.7727,-5.7756,-5.7762,-5.7739,-5.7836,-5.7803,-5.7814,-5.7855,-5.795,-5.7956,-5.7962,-5.8013,-5.8026,-5.8038,0,0,0,0,0,0,-5.7625,-5.7647,-5.7635,-5.7707,-5.773,-5.7748,-5.7785,-5.777,-5.7799,-5.7793,-5.7782,-5.7787,-5.7849,-5.7858,-5.782,-5.793,-5.7888,-5.7897,-5.7922,-5.7935,-5.7945,-5.7942,-5.7776,0,0,0,0,0,-5.7644,-5.7685,-5.7701,-5.7762,-5.7774,-5.7778,-5.7799,-5.7793,-5.7815,-5.7824,-5.7834,-5.7855,-5.789,-5.7913,-5.7945,-5.8018,-5.8022,-5.8052,-5.8062,-5.8071,-5.8078,-5.8118,-5.8132,-5.7986,-5.7986,-5.7986,0,0,-5.7681,-5.7698,-5.7724,-5.7771,-5.7788,-5.7829,-5.7786,-5.7831,-5.7861,-5.783,-5.7887,-5.7895,-5.7917,-5.7984,-5.8014,-5.7993,-5.812,-5.8079,-5.8085,-5.8088,-5.8126,-5.814,-5.8152,-5.799,-5.799,-5.7989,0,0,-5.777,-5.7787,-5.7841,-5.7859,-5.7886,-5.7888,-5.7901,-5.7923,-5.7928,-5.7985,-5.7963,-5.7997,-5.8058,-5.8075,-5.8092,-5.8189,-5.817,-5.82,-5.8254,-5.8293,-5.8304,-5.8314,-5.835,-5.8363,-5.8208,-5.8208,-5.8208,0,-5.7812,-5.7876,-5.787,-5.7918,-5.7939,-5.7915,-5.7969,-5.7986,-5.8021,-5.8036,-5.8013,-5.8089,-5.8102,-5.8173,-5.8197,-5.8211,-5.8225,-5.8198,-5.8303,-5.8314,-5.8323,-5.8357,-5.837,-5.8211,-5.8211,-5.821,-5.821,0,-5.7927,-5.7971,-5.8011,-5.8049,-5.8074,-5.8125,-5.8126,-5.8152,-5.8143,-5.8148,-5.8206,-5.8222,-5.8258,-5.8274,-5.8264,-5.8343,-5.833,-5.8305,-5.8263,-5.8341,-5.8372,-5.8385,-5.8216,-5.8215,-5.8214,-5.8213,0,0,-5.8044,-5.808,-5.8094,-5.8112,-5.814,-5.8173,-5.8222,-5.826,-5.8283,-5.8308,-5.8348,-5.8401,-5.8379,-5.8398,-5.839,-5.8425,-5.8502,-5.8396,-5.8396,-5.8416,-5.8591,-5.861,-5.8625,-5.8489,-5.8492,-5.8494,-5.8589,0,-5.8136,-5.8224,-5.8221,-5.8302,-5.8343,-5.8321,-5.8364,-5.8385,-5.8391,-5.8425,-5.8429,-5.8468,-5.8435,-5.8447,-5.848,-5.8486,-5.8537,-5.8479,-5.8526,-5.8528,-5.8522,-5.8641,-5.8661,-5.875,-5.8601,-5.8603,-5.8605,0,-5.8254,-5.8286,-5.8373,-5.8397,-5.8414,-5.8453,-5.8487,-5.852,-5.8544,-5.8545,-5.8568,-5.8555,-5.8603,-5.856,-5.8627,-5.8587,-5.8606,-5.8612,-5.8615,-5.862,-5.8572,-5.8649,-5.8779,-5.8792,-5.8624,-5.8622,-5.8621,0,-5.8332,-5.8397,-5.8458,-5.8473,-5.8502,-5.853,-5.8543,-5.8564,-5.8587,-5.8616,-5.8631,-5.8665,-5.8684,-5.8709,-5.8706,-5.8675,-5.8774,-5.873,-5.8776,-5.8776,-5.8798,-5.8797,-5.8933,-5.881,-5.8809,-5.8809,-5.8809,0,-5.8435,-5.8489,-5.8493,-5.8531,-5.859,-5.8586,-5.8644,-5.8654,-5.8673,-5.8711,-5.8693,-5.8728,-5.8721,-5.8756,-5.8754,-5.881,-5.8818,-5.882,-5.8818,-5.8822,-5.8822,-5.8834,-5.8828,-5.8813,-5.8812,-5.8811,-5.8811,0,-5.8533,-5.8538,-5.8603,-5.8626,-5.8633,-5.8676,-5.8695,-5.8729,-5.8734,-5.8782,-5.8793,-5.8799,-5.8839,-5.8839,-5.8884,-5.8882,-5.8951,-5.8942,-5.8944,-5.8942,-5.8989,-5.8985,-5.9138,-5.9158,-5.9021,-5.9023,-5.9024,0,-5.8598,-5.864,-5.8668,-5.8694,-5.871,-5.875,-5.8774,-5.8771,-5.8796,-5.8827,-5.8858,-5.8897,-5.8929,-5.8994,-5.9002,-5.9036,-5.9028,-5.908,-5.9033,-5.9036,-5.903,-5.9028,-5.9032,-5.9089,-5.9091,-5.9092,-5.9093,0,-5.8715,-5.8716,-5.8753,-5.8791,-5.8821,-5.8851,-5.8877,-5.8899,-5.8898,-5.8927,-5.897,-5.8995,-5.9042,-5.9081,-5.9115,-5.9126,-5.911,-5.9108,-5.912,-5.9124,-5.9124,-5.9126,-5.897,-5.9104,-5.9103,-5.9102,-5.9101,-5.9101,-5.8799,-5.8836,-5.8862,-5.8904,-5.8924,-5.895,-5.8985,-5.8995,-5.9031,-5.9071,-5.9066,-5.9114,-5.9136,-5.918,-5.9195,-5.9231,-5.9212,-5.923,-5.9235,-5.924,-5.9246,-5.9118,-5.9236,-5.9236,-5.9236,-5.9236,-5.9235,0,-5.8915,-5.8932,-5.8971,-5.9011,-5.9043,-5.9027,-5.9056,-5.9084,-5.9127,-5.9151,-5.9183,-5.9232,-5.927,-5.9281,-5.9318,-5.9344,-5.9338,-5.9354,-5.9352,-5.9355,-5.9259,-5.9245,-5.9359,-5.9359,-5.9359,-5.9359,-5.9359,-5.9359,-5.898,-5.9042,-5.9046,-5.9117,-5.9132,-5.9181,-5.9199,-5.9222,-5.9241,-5.9298,-5.9331,-5.9338,-5.9357,-5.9395,-5.9429,-5.9431,-5.9445,-5.9465,-5.9464,-5.9374,-5.9362,-5.935,-5.9337,-5.9468,-5.9469,-5.9558,-5.9559,-5.9559]}]]